Hourly Data Report for June 12, 2017

ATIKOKAN (AUT)
ONTARIO

48°45'40.000" N
91°37'41.000" W
389.30 m
6020LPQ
71747
WCH

Download Data

Hourly Data (June 2017)
Hourly Data Report for June 12, 2017
TIME
LST
Temp Definition
°C
Dew Point Definition
°C
Rel Hum Definition
%
Precip. Amount Definition
mm

Wind Dir Definition
10's deg

Wind Spd Definition
km/h
Visibility Definition
km
Stn Press Definition
kPa
Hmdx Definition


Wind Chill Definition


Weather Definition


00:00 13.8 12.0 89 0.0   0   96.04     LegendNANA
01:00 12.5 11.1 91 0.0 27 1   96.06     LegendNANA
02:00 12.1 10.6 91 0.0 23 3   96.12     LegendNANA
03:00 10.9 9.8 93 0.0   0   96.14     LegendNANA
04:00 10.4 9.5 94 0.0   0   96.21     LegendNANA
05:00 12.0 11.1 94 0.0 25 2   96.33     LegendNANA
06:00 15.5 10.3 71 0.0 30 8   96.46     LegendNANA
07:00 16.8 8.3 57 0.0 31 13   96.58     LegendNANA
08:00 17.7 6.9 49 0.0 31 12   96.66     LegendNANA
09:00 18.9 6.5 44 0.0 32 10   96.71     LegendNANA
10:00 19.9 6.5 42 0.0 33 12   96.75     LegendNANA
11:00 20.1 7.1 43 0.0 33 14   96.78     LegendNANA
12:00 21.0 6.5 39 0.0 31 16   96.77     LegendNANA
13:00 21.8 7.2 39 0.0 33 10   96.75     LegendNANA
14:00 22.3 6.9 37 0.0 33 8   96.82     LegendNANA
15:00 22.6 5.4 33 0.0 33 9   96.83     LegendNANA
16:00 21.5 6.8 38 0.0 36 5   96.88     LegendNANA
17:00 20.8 6.9 40 0.0 35 8   96.85     LegendNANA
18:00 21.5 6.7 38 0.0 36 4   96.85     LegendNANA
19:00 20.6 6.3 39 0.0 36 3   96.86     LegendNANA
20:00 15.3 8.4 63 0.0 3 3   96.88     LegendNANA
21:00 12.7 9.7 82 0.0 4 1   96.94     LegendNANA
22:00 11.9 10.0 88 0.0 10 1   97.02     LegendNANA
23:00 11.5 10.2 92 0.0 6 2   97.09     LegendNANA

Notes on Data Quality.

Legend

  • E = Estimated
  • M = Missing
  • NA = Not Available*
  • [empty] = Indicates an unobserved value
Date modified: